Location: Unspecified
(48.8656°N, 0.0000°E)
Time: 10:14:46
(UTC+00:00)

Altair - Pass Details

Date: 23 June 2019
Orbit: 1501 x 1683 km, 47.2° (Epoch: 24 August)

Event Time Altitude Azimuth Distance (km) Brightness Sun altitude
Rises 22:08:11 0° 266° (W) 4,749 10.4 -13.4°
Reaches altitude 10° 22:11:13 10° 265° (W) 3,789 9.8 -13.6°
Maximum altitude 22:20:55 83° 180° (S) 1,646 7.6 -14.2°
Drops below altitude 10° 22:31:00 10° 95° (E) 3,921 9.4 -14.9°
Sets 22:34:11 0° 94° (E) 4,922 9.9 -15.1°
